GW3840 Weather Reports


time (UTC)temp
C
wind
direction
speed
KPH
gust
KPH
rain 1hr
cm
rain 24hr
cm
rain mn
cm
humidity
%
barometer
mb
20260508044210 5 227 0.0 0.0 0.00 0.00 0.00 82 1009.5
20260508043706 5 228 0.0 0.0 0.00 0.00 0.00 82 1009.6
20260508043204 5 228 0.0 0.0 0.00 0.00 0.00 79 1009.7
20260508042700 5 228 0.0 0.0 0.00 0.00 0.00 78 1009.6
20260508042158 5 228 0.0 0.0 0.00 0.00 0.00 79 1009.9
20260508041654 6 228 0.0 0.0 0.00 0.00 0.00 79 1009.7
20260508041151 6 228 0.0 1.6 0.00 0.00 0.00 78 1009.7
20260508040648 6 228 0.0 1.6 0.00 0.00 0.00 78 1009.9
20260508040145 6 228 0.0 0.0 0.00 0.00 0.00 79 1009.7
20260508035642 6 228 0.0 0.0 0.00 0.00 0.00 77 1010.0
20260508035140 6 228 0.0 1.6 0.00 0.00 0.00 75 1009.7
20260508034636 6 228 1.6 1.6 0.00 0.00 0.00 76 1010.0
20260508034133 6 229 1.6 1.6 0.00 0.00 0.00 77 1009.9
20260508033630 6 223 0.0 1.6 0.00 0.00 0.00 77 1010.0
20260508033129 6 228 1.6 1.6 0.00 0.00 0.00 75 1009.9
20260508032625 6 229 0.0 1.6 0.00 0.00 0.00 72 1010.0
20260508032122 6 215 1.6 1.6 0.00 0.00 0.00 69 1009.9
20260508031619 6 215 1.6 1.6 0.00 0.00 0.00 65 1010.0
20260508031115 6 215 0.0 1.6 0.00 0.00 0.00 66 1010.1
20260508030612 6 215 0.0 0.0 0.00 0.00 0.00 63 1010.2
20260508030110 7 215 0.0 1.6 0.00 0.00 0.00 62 1010.0
20260508025606 7 215 0.0 0.0 0.00 0.00 0.00 63 1009.9
20260508025103 7 215 0.0 1.6 0.00 0.00 0.00 64 1009.9
20260508024559 6 228 1.6 1.6 0.00 0.00 0.00 57 1010.1
20260508024056 6 227 0.0 0.0 0.00 0.00 0.00 55 1010.1
20260508023552 6 227 0.0 0.0 0.00 0.00 0.00 57 1009.9
20260508023050 6 228 0.0 0.0 0.00 0.00 0.00 55 1010.0
20260508022546 7 227 0.0 0.0 0.00 0.00 0.00 53 1009.9
20260508022043 7 227 0.0 0.0 0.00 0.00 0.00 50 1009.7
20260508021539 7 227 0.0 0.0 0.00 0.00 0.00 48 1009.7
20260508021034 7 227 0.0 0.0 0.00 0.00 0.00 47 1009.7
20260508020532 7 227 0.0 0.0 0.00 0.00 0.00 46 1009.6
20260508020030 8 228 0.0 0.0 0.00 0.00 0.00 45 1009.6
20260508015527 8 228 0.0 0.0 0.00 0.00 0.00 43 1009.5
20260508015024 9 233 0.0 0.0 0.00 0.00 0.00 41 1009.6
20260508014520 10 234 0.0 0.0 0.00 0.00 0.00 40 1009.5
20260508014017 11 234 0.0 0.0 0.00 0.00 0.00 38 1009.4
20260508013513 11 238 0.0 1.6 0.00 0.00 0.00 36 1009.6
20260508013010 12 243 1.6 1.6 0.00 0.00 0.00 34 1009.6
20260508012507 12 248 3.2 3.2 0.00 0.00 0.00 34 1009.4
20260508012005 12 249 3.2 4.8 0.00 0.00 0.00 32 1009.6
20260508011503 12 257 1.6 3.2 0.00 0.00 0.00 32 1009.7
20260508011000 12 265 1.6 6.4 0.00 0.00 0.00 33 1009.4
20260508010457 13 267 3.2 4.8 0.00 0.00 0.00 32 1009.9
20260508005954 13 307 3.2 3.2 0.00 0.00 0.00 32 1009.5
20260508005450 13 280 6.4 11.3 0.00 0.00 0.00 31 1009.5
20260508004947 13 247 3.2 6.4 0.00 0.00 0.00 32 1009.5
20260508004443 13 316 9.7 16.1 0.00 0.00 0.00 31 1009.4
20260508003940 13 271 3.2 12.9 0.00 0.00 0.00 32 1009.6
20260508003437 13 305 6.4 9.7 0.00 0.00 0.00 31 1009.4
20260508002934 14 335 12.9 16.1 0.00 0.00 0.00 30 1009.4
20260508002431 14 285 4.8 9.7 0.00 0.00 0.00 31 1009.4
20260508001926 14 282 9.7 12.9 0.00 0.00 0.00 30 1009.5
20260508001423 14 282 9.7 12.9 0.00 0.00 0.00 30 1009.4
20260508000920 14 282 9.7 12.9 0.00 0.00 0.00 30 1009.4
20260508000415 14 282 9.7 12.9 0.00 0.00 0.00 30 1009.6
20260507235913 14 282 9.7 12.9 0.00 0.00 0.00 30 1009.5
20260507235410 14 263 4.8 6.4 0.00 0.00 0.00 30 1009.7
20260507234907 14 205 4.8 4.8 0.00 0.00 0.00 33 1009.7
20260507234403 14 205 4.8 4.8 0.00 0.00 0.00 33 1009.7
20260507233900 14 205 4.8 4.8 0.00 0.00 0.00 33 1009.7
20260507233357 14 287 9.7 12.9 0.00 0.00 0.00 32 1009.6
20260507232855 14 266 12.9 17.7 0.00 0.00 0.00 32 1009.6
20260507232351 14 312 1.6 6.4 0.00 0.00 0.00 33 1009.4
20260507231849 14 331 4.8 4.8 0.00 0.00 0.00 33 1009.9
20260507231345 13 299 8.0 14.5 0.00 0.00 0.00 32 1009.7
20260507230842 13 329 1.6 11.3 0.00 0.00 0.00 35 1009.9
20260507230339 15 309 9.7 11.3 0.00 0.00 0.00 30 1009.9
20260507225839 13 265 11.3 22.5 0.00 0.00 0.00 31 1009.9
20260507225335 14 216 12.9 24.1 0.00 0.00 0.00 32 1010.0
20260507224831 14 344 9.7 16.1 0.00 0.00 0.00 32 1009.9
20260507224328 13 299 3.2 6.4 0.00 0.00 0.00 35 1009.9
20260507223824 12 6 8.0 11.3 0.00 0.00 0.00 34 1010.1
20260507223320 13 351 6.4 9.7 0.00 0.00 0.00 34 1010.1
20260507222818 13 310 4.8 12.9 0.00 0.00 0.00 35 1010.0
20260507222314 13 289 4.8 11.3 0.00 0.00 0.00 35 1010.1
20260507221811 13 253 8.0 11.3 0.00 0.00 0.00 33 1010.1
20260507221308 13 271 4.8 6.4 0.00 0.00 0.00 34 1010.2
20260507220804 13 286 9.7 17.7 0.00 0.00 0.00 33 1010.3
20260507220303 13 298 6.4 9.7 0.00 0.00 0.00 33 1010.4
20260507215758 14 333 6.4 14.5 0.00 0.00 0.00 33 1010.3
20260507215256 15 257 8.0 12.9 0.00 0.00 0.00 31 1010.4
20260507214753 14 330 8.0 14.5 0.00 0.00 0.00 32 1010.4
20260507214250 13 334 6.4 9.7 0.00 0.00 0.00 32 1010.6
20260507213745 13 354 8.0 9.7 0.00 0.00 0.00 32 1010.5
20260507213242 13 308 6.4 9.7 0.00 0.00 0.00 36 1010.5
20260507212739 13 308 6.4 9.7 0.00 0.00 0.00 36 1010.5
20260507212235 13 308 6.4 9.7 0.00 0.00 0.00 36 1010.7
20260507211732 13 308 6.4 9.7 0.00 0.00 0.00 36 1010.8
20260507211228 13 308 6.4 9.7 0.00 0.00 0.00 36 1010.6
20260507210725 13 1 8.0 9.7 0.00 0.00 0.00 34 1010.8
20260507210222 13 330 6.4 16.1 0.00 0.00 0.00 34 1010.8
20260507205718 13 254 8.0 14.5 0.00 0.00 0.00 32 1010.9
20260507205215 13 238 6.4 16.1 0.00 0.00 0.00 34 1010.6
20260507204711 13 283 9.7 11.3 0.00 0.00 0.00 33 1010.7
20260507204209 13 352 11.3 14.5 0.00 0.00 0.00 32 1010.8
20260507203707 14 290 6.4 9.7 0.00 0.00 0.00 36 1010.9
20260507203204 14 290 6.4 9.7 0.00 0.00 0.00 36 1010.9
20260507202700 13 277 11.3 14.5 0.00 0.00 0.00 32 1010.8
20260507202156 13 223 11.3 14.5 0.00 0.00 0.00 31 1011.0
20260507201651 13 299 14.5 20.9 0.00 0.00 0.00 31 1011.2
20260507201148 12 8 6.4 16.1 0.00 0.00 0.00 33 1011.1
20260507200645 13 358 6.4 16.1 0.00 0.00 0.00 33 1011.0
20260507200141 13 356 8.0 11.3 0.00 0.00 0.00 37 1011.0
20260507195637 12 265 9.7 16.1 0.00 0.00 0.00 37 1011.3
20260507195135 12 265 9.7 16.1 0.00 0.00 0.00 37 1011.4
20260507194631 12 265 9.7 16.1 0.00 0.00 0.00 37 1011.4
20260507194126 12 265 9.7 16.1 0.00 0.00 0.00 37 1011.3
20260507193624 12 265 9.7 16.1 0.00 0.00 0.00 37 1011.4
20260507193121 12 265 9.7 16.1 0.00 0.00 0.00 37 1011.5
20260507192617 12 265 9.7 16.1 0.00 0.00 0.00 37 1011.5
20260507192115 12 265 9.7 16.1 0.00 0.00 0.00 37 1011.4
20260507191610 12 312 11.3 14.5 0.00 0.00 0.00 36 1011.4
20260507191107 12 312 11.3 14.5 0.00 0.00 0.00 36 1011.4
20260507190604 12 277 9.7 14.5 0.00 0.00 0.00 36 1011.7
20260507185601 12 254 6.4 9.7 0.00 0.00 0.00 37 1011.6
20260507185057 12 254 6.4 9.7 0.00 0.00 0.00 37 1011.6
20260507184555 12 254 6.4 9.7 0.00 0.00 0.00 37 1011.8
20260507184053 12 254 6.4 9.7 0.00 0.00 0.00 37 1012.0
20260507183549 12 254 6.4 9.7 0.00 0.00 0.00 37 1011.8
20260507183046 12 254 6.4 9.7 0.00 0.00 0.00 37 1011.8
20260507182542 12 254 6.4 9.7 0.00 0.00 0.00 37 1011.9
20260507182038 11 329 6.4 6.4 0.00 0.00 0.00 38 1011.9
20260507181536 11 329 6.4 6.4 0.00 0.00 0.00 38 1011.9
20260507181031 11 329 6.4 6.4 0.00 0.00 0.00 38 1012.0
20260507180528 11 329 6.4 6.4 0.00 0.00 0.00 38 1012.1
20260507180025 11 329 6.4 6.4 0.00 0.00 0.00 38 1012.1
20260507175521 11 329 6.4 6.4 0.00 0.00 0.00 38 1012.5
20260507175019 11 329 6.4 6.4 0.00 0.00 0.00 38 1012.5
20260507174516 11 329 6.4 6.4 0.00 0.00 0.00 38 1012.1
20260507174014 11 294 8.0 11.3 0.00 0.00 0.00 39 1012.2
20260507173510 11 294 8.0 11.3 0.00 0.00 0.00 39 1012.5
20260507173008 11 294 8.0 11.3 0.00 0.00 0.00 39 1012.5
20260507172503 11 294 8.0 11.3 0.00 0.00 0.00 39 1012.6
20260507172000 11 342 4.8 6.4 0.00 0.00 0.00 38 1012.6
20260507171455 10 282 3.2 4.8 0.00 0.00 0.00 41 1012.7
20260507170953 11 353 4.8 9.7 0.00 0.00 0.00 37 1012.8
20260507170450 11 237 8.0 12.9 0.00 0.00 0.00 40 1012.8
20260507165946 11 270 6.4 6.4 0.00 0.00 0.00 40 1013.0
20260507165442 10 262 12.9 20.9 0.00 0.00 0.00 38 1012.9
20260507164938 10 224 6.4 9.7 0.00 0.00 0.00 39 1012.8
20260507164435 10 215 4.8 11.3 0.00 0.00 0.00 38 1012.9
20260507163932 10 225 11.3 12.9 0.00 0.00 0.00 40 1013.1
20260507163430 10 240 3.2 3.2 0.00 0.00 0.00 42 1013.0
20260507162926 10 240 3.2 3.2 0.00 0.00 0.00 42 1012.9
20260507162421 10 251 4.8 6.4 0.00 0.00 0.00 42 1013.1
20260507161920 10 248 8.0 12.9 0.00 0.00 0.00 40 1013.0
20260507161415 10 206 3.2 3.2 0.00 0.00 0.00 42 1013.1
20260507160912 10 206 3.2 3.2 0.00 0.00 0.00 42 1013.2
20260507160408 10 206 3.2 12.9 0.00 0.00 0.00 42 1013.3
20260507155904 10 227 3.2 4.8 0.00 0.00 0.00 42 1013.2
20260507155400 10 210 0.0 1.6 0.00 0.00 0.00 42 1013.3
20260507154857 9 248 6.4 6.4 0.00 0.00 0.00 43 1013.2
20260507154354 9 206 9.7 11.3 0.00 0.00 0.00 41 1013.1
20260507153851 9 224 1.6 3.2 0.00 0.00 0.00 42 1013.3
20260507153347 8 292 3.2 9.7 0.00 0.00 0.00 46 1013.3
20260507152844 9 237 6.4 9.7 0.00 0.00 0.00 45 1013.2
20260507152340 8 258 8.0 9.7 0.00 0.00 0.00 44 1013.2
20260507151836 8 258 8.0 9.7 0.00 0.00 0.00 44 1013.3
20260507151332 8 258 8.0 9.7 0.00 0.00 0.00 44 1013.2
20260507150830 8 258 8.0 11.3 0.00 0.00 0.00 44 1013.2
20260507150321 9 194 3.2 9.7 0.00 0.00 0.00 46 1013.1
20260507145817 8 222 4.8 11.3 0.00 0.00 0.00 45 1013.4
20260507145313 8 280 8.0 11.3 0.00 0.00 0.00 45 1013.4
20260507144811 8 167 4.8 6.4 0.00 0.00 0.00 47 1013.4
20260507144308 8 237 4.8 9.7 0.00 0.00 0.00 47 1013.4
20260507143804 8 219 4.8 6.4 0.00 0.00 0.00 48 1013.3
20260507143302 7 168 3.2 12.9 0.00 0.00 0.00 50 1013.4
20260507142757 7 235 9.7 12.9 0.00 0.00 0.00 50 1013.5
20260507142254 7 215 6.4 9.7 0.00 0.00 0.00 51 1013.4
20260507141751 7 222 6.4 9.7 0.00 0.00 0.00 51 1013.5
20260507141248 6 156 1.6 12.9 0.00 0.00 0.00 53 1013.4
20260507140744 6 200 4.8 4.8 0.00 0.00 0.00 51 1013.3
20260507140242 6 217 3.2 4.8 0.00 0.00 0.00 53 1013.3
20260507135738 6 214 6.4 9.7 0.00 0.00 0.00 54 1013.4
20260507135236 6 230 3.2 9.7 0.00 0.00 0.00 60 1013.3
20260507134732 6 161 3.2 6.4 0.00 0.00 0.00 60 1013.1
20260507134228 6 204 3.2 6.4 0.00 0.00 0.00 58 1013.3
20260507133724 5 232 1.6 3.2 0.00 0.00 0.00 63 1013.3
20260507133221 5 241 6.4 11.3 0.00 0.00 0.00 62 1013.3
20260507132719 5 235 3.2 9.7 0.00 0.00 0.00 62 1013.4
20260507132215 5 166 1.6 4.8 0.00 0.00 0.00 64 1013.4
20260507131712 5 144 3.2 4.8 0.00 0.00 0.00 66 1013.5
20260507131210 5 239 1.6 9.7 0.00 0.00 0.00 68 1013.3
20260507130706 4 218 4.8 6.4 0.00 0.00 0.00 67 1013.5
20260507130204 4 177 3.2 3.2 0.00 0.00 0.00 68 1013.7
20260507125702 4 177 3.2 3.2 0.00 0.00 0.00 68 1013.5
20260507125200 3 212 1.6 4.8 0.00 0.00 0.00 69 1013.6
20260507124656 3 236 1.6 4.8 0.00 0.00 0.00 70 1013.4
20260507124153 3 208 1.6 3.2 0.00 0.00 0.00 70 1013.3
20260507123652 3 183 0.0 1.6 0.00 0.00 0.00 71 1013.3
20260507123148 3 222 1.6 3.2 0.00 0.00 0.00 72 1013.3
20260507122643 3 205 0.0 1.6 0.00 0.00 0.00 73 1013.4
20260507122139 2 215 1.6 3.2 0.00 0.00 0.00 73 1013.4
20260507121635 2 235 1.6 3.2 0.00 0.00 0.00 73 1013.3
20260507121132 2 182 0.0 4.8 0.00 0.00 0.00 74 1013.4
20260507120628 2 167 3.2 3.2 0.00 0.00 0.00 74 1013.4
20260507120125 2 179 1.6 4.8 0.00 0.00 0.00 75 1013.3
20260507115621 1 206 0.0 4.8 0.00 0.00 0.00 75 1013.2
20260507115117 1 180 0.0 1.6 0.00 0.00 0.00 76 1013.3
20260507114613 1 221 3.2 4.8 0.00 0.00 0.00 78 1013.3
20260507114110 0 201 3.2 4.8 0.00 0.00 0.00 79 1013.3
20260507113608 0 190 0.0 1.6 0.00 0.00 0.00 81 1013.1
20260507113105 0 199 0.0 1.6 0.00 0.00 0.00 83 1013.1
20260507112603 0 196 0.0 1.6 0.00 0.00 0.00 83 1013.4
20260507112059 0 172 0.0 1.6 0.00 0.00 0.00 87 1013.2
20260507111555 0 172 0.0 1.6 0.00 0.00 0.00 87 1013.4
20260507111052 -2 195 0.0 0.0 0.00 0.00 0.00 91 1013.3
20260507110548 -2 195 0.0 0.0 0.00 0.00 0.00 91 1013.3
20260507110045 -2 195 0.0 0.0 0.00 0.00 0.00 91 1013.2
20260507105542 -2 195 0.0 0.0 0.00 0.00 0.00 91 1013.4
20260507105038 -2 195 0.0 0.0 0.00 0.00 0.00 91 1013.4
20260507104536 -1 201 0.0 0.0 0.00 0.00 0.00 90 1013.4
20260507104032 -1 201 0.0 0.0 0.00 0.00 0.00 90 1013.6
20260507103528 -1 190 0.0 0.0 0.00 0.00 0.00 88 1013.5
20260507103025 -1 201 0.0 0.0 0.00 0.00 0.00 86 1013.5
20260507102522 0 208 0.0 0.0 0.00 0.00 0.00 84 1013.5
20260507102018 0 208 0.0 0.0 0.00 0.00 0.00 84 1013.5
20260507101513 0 196 0.0 0.0 0.00 0.00 0.00 83 1013.6
20260507101010 0 184 0.0 0.0 0.00 0.00 0.00 82 1013.6
20260507100507 0 184 0.0 0.0 0.00 0.00 0.00 82 1013.4
20260507100006 0 173 1.6 1.6 0.00 0.00 0.00 83 1013.5
20260507095503 -1 194 0.0 0.0 0.00 0.00 0.00 87 1013.4
20260507094959 -1 194 0.0 0.0 0.00 0.00 0.00 87 1013.5
20260507094455 -1 194 0.0 0.0 0.00 0.00 0.00 87 1013.3
20260507093953 -1 194 0.0 0.0 0.00 0.00 0.00 87 1013.5
20260507093450 -1 194 0.0 0.0 0.00 0.00 0.00 87 1013.5
20260507092949 -1 194 0.0 0.0 0.00 0.00 0.00 87 1013.6
20260507092445 -1 194 0.0 0.0 0.00 0.00 0.00 87 1013.6
20260507091941 -1 194 0.0 0.0 0.00 0.00 0.00 87 1013.7
20260507091438 -1 194 0.0 0.0 0.00 0.00 0.00 87 1013.7
20260507090934 -1 194 0.0 0.0 0.00 0.00 0.00 87 1013.6
20260507090430 -1 190 0.0 0.0 0.00 0.00 0.00 84 1013.6
20260507085926 -1 182 0.0 0.0 0.00 0.00 0.00 83 1013.5
20260507085424 -1 192 0.0 0.0 0.00 0.00 0.00 81 1013.6
20260507084915 0 192 0.0 1.6 0.00 0.00 0.00 81 1013.7
20260507084412 0 197 0.0 0.0 0.00 0.00 0.00 78 1013.8
20260507083909 0 170 0.0 1.6 0.00 0.00 0.00 76 1013.7
20260507083405 0 208 1.6 1.6 0.00 0.00 0.00 75 1013.7
20260507082902 0 195 0.0 0.0 0.00 0.00 0.00 73 1013.8
20260507082357 0 181 1.6 1.6 0.00 0.00 0.00 74 1013.7
20260507081855 0 181 1.6 1.6 0.00 0.00 0.00 74 1013.6
20260507081351 0 230 0.0 1.6 0.00 0.00 0.00 77 1013.7
20260507080848 0 193 0.0 1.6 0.00 0.00 0.00 79 1013.6
20260507080344 -1 199 0.0 0.0 0.00 0.00 0.00 81 1013.5
20260507075839 0 191 0.0 0.0 0.00 0.00 0.00 81 1013.6
20260507075336 0 185 0.0 0.0 0.00 0.00 0.00 81 1013.7
20260507074832 0 192 1.6 3.2 0.00 0.00 0.00 82 1013.4
20260507074330 0 187 0.0 0.0 0.00 0.00 0.00 80 1013.8
20260507073827 0 194 0.0 0.0 0.00 0.00 0.00 80 1013.7
20260507073323 0 173 0.0 0.0 0.00 0.00 0.00 80 1013.8
20260507072821 0 199 0.0 0.0 0.00 0.00 0.00 80 1013.7
20260507072318 -17 0.0 0.0 0.00 0.00 0.00 1013.8
20260507071815 -17 0.0 0.0 0.00 0.00 0.00 1013.8
20260507071312 -17 0.0 0.0 0.00 0.00 0.00 1013.9
20260507070809 -17 0.0 0.0 0.00 0.00 0.00 1014.0
20260507070306 -17 0.0 0.0 0.00 0.00 0.00 1014.0
20260507065802 -17 0.0 0.0 0.00 0.00 0.00 1014.0
20260507065259 -17 0.0 0.0 0.00 0.00 0.00 1013.9
20260507064756 -17 0.0 0.0 0.00 0.00 0.00 1014.3
20260507064255 -17 0.0 0.0 0.00 0.00 0.00 1014.1
20260507063753 -17 0.0 0.0 0.00 0.00 0.00 1014.2
20260507063249 -17 0.0 0.0 0.00 0.00 0.00 1014.2
20260507062746 -1 188 0.0 0.0 0.00 0.00 0.00 88 1014.2
20260507062243 -1 188 0.0 0.0 0.00 0.00 0.00 88 1014.3
20260507061741 -1 188 0.0 0.0 0.00 0.00 0.00 88 1014.4
20260507061239 -1 188 0.0 0.0 0.00 0.00 0.00 88 1014.3
20260507060737 -1 188 0.0 0.0 0.00 0.00 0.00 88 1014.5
20260507060233 -1 188 0.0 0.0 0.00 0.00 0.00 88 1014.5
20260507055729 -1 188 0.0 0.0 0.00 0.00 0.00 88 1014.5
20260507055225 -1 188 0.0 0.0 0.00 0.00 0.00 88 1014.5
20260507054721 -1 188 0.0 0.0 0.00 0.00 0.00 88 1014.5
20260507054218 -1 188 0.0 0.0 0.00 0.00 0.00 88 1014.5
20260507053716 -1 188 0.0 0.0 0.00 0.00 0.00 88 1014.7
20260507053213 -1 188 0.0 0.0 0.00 0.00 0.00 88 1014.7
20260507052712 -1 187 0.0 0.0 0.00 0.00 0.00 86 1015.0
20260507052208 -1 187 0.0 0.0 0.00 0.00 0.00 86 1015.0
20260507051706 -1 187 0.0 0.0 0.00 0.00 0.00 86 1015.0
20260507051203 -1 187 0.0 0.0 0.00 0.00 0.00 86 1015.1
20260507050659 0 202 0.0 0.0 0.00 0.00 0.00 82 1015.1
20260507050156 0 202 0.0 0.0 0.00 0.00 0.00 82 1015.3
20260507045653 0 202 0.0 0.0 0.00 0.00 0.00 82 1015.2
20260507045149 0 202 0.0 0.0 0.00 0.00 0.00 82 1015.3
20260507044646 0 202 0.0 0.0 0.00 0.00 0.00 82 1015.3